Flag for Germany Weather past 2 weeks in Sankt Ingbert, Saarland, Germany

Now
56 °F

Overcast.


Feels Like: 56 °F
Forecast: 35 / 50 °F
Wind: 2 mph from Southwest

Location: Saarbruecken / Ensheim

Current Time: Apr 27, 2015 at 2:42:52 AM

Latest Report: Apr 27, 2015 at 2:00 AM


Visibility: 22 mi

Pressure: 29.61 "Hg

Humidity: 89%

Dew point: 53 °F

Location of Sankt IngbertLocation

Historic Weather in Sankt Ingbert — Graph

°F

Sankt Ingbert temperature yesterday

Maximum temperature yesterday: 67 °F (at 3:00 PM)
Minimum temperature yesterday: 52 °F (at 8:00 AM)
Average temperature yesterday: 58 °F

Past Weeks' High & Low Weather Summary

 TemperatureHumidityPressure
High76 °F (Apr 15, 5:00 PM)100% (Apr 12, 8:00 AM)30.49 "Hg (Apr 12, 8:00 AM)
Low35 °F (Apr 23, 5:00 AM)22% (Apr 15, 4:00 PM)29.61 "Hg (Apr 26, 11:00 PM)
Average55 °F59%30.14 "Hg
* Reported Apr 12 1:00 AM — Apr 27 1:00 AM, Sankt Ingbert, Weather by CustomWeather, © 2015

Note: Actual official high and low records may vary slightly from our data, if they occured in-between our weather recording intervals... More about our weather records

Advertising

Sankt Ingbert weather history for previous 24 hours

 ConditionsComfort  
Time TempWeatherWind HumidityBarometerVisibility
1:00 AM
Mon, Apr 27
56 °FOvercast.1 mph90%29.62 "Hg19 mi
12:00 AM56 °FOvercast.5 mph89%29.63 "Hg19 mi
11:00 PM
Sun, Apr 26
57 °FOvercast.2 mph88%29.61 "Hg19 mi
10:00 PM57 °FLight rain. Overcast.2 mph87%29.63 "Hg16 mi
9:00 PM61 °FLight rain. Overcast.5 mph70%29.63 "Hg12 mi
8:00 PM61 °FOvercast.2 mph70%29.62 "Hg16 mi
7:00 PM64 °FOvercast.5 mph65%29.64 "Hg25 mi
6:00 PM66 °FOvercast.2 mph53%29.64 "Hg19 mi
5:00 PM66 °FOvercast.2 mph49%29.67 "Hg19 mi
4:00 PM65 °FOvercast.5 mph57%29.70 "Hg19 mi
3:00 PM67 °FOvercast.5 mph60%29.71 "Hg16 mi
2:00 PM65 °FOvercast.5 mph61%29.74 "Hg16 mi
1:00 PM62 °FOvercast.5 mph77%29.77 "Hg14 mi
12:00 PM58 °FOvercast.3 mph87%29.80 "Hg11 mi
11:00 AM56 °FLow clouds.5 mph89%29.81 "Hg9 mi
10:00 AM54 °FLow clouds.3 mph94%29.82 "Hg9 mi
9:00 AM53 °FLow clouds.3 mph97%29.83 "Hg6 mi
8:00 AM52 °FSprinkles. Low clouds.3 mph97%29.83 "Hg2 mi
7:00 AM52 °FLow clouds.3 mph97%29.83 "Hg5 mi
6:00 AM52 °FLow clouds.2 mph97%29.83 "Hg5 mi
5:00 AM52 °FLow clouds.3 mph97%29.83 "Hg5 mi
4:00 AM53 °FLow clouds.3 mph97%29.83 "Hg5 mi
3:00 AM53 °FLow clouds.5 mph97%29.84 "Hg5 mi
2:00 AM53 °FLow clouds.3 mph98%29.85 "Hg5 mi
Weather by CustomWeather, © 2015

See weather overviewHow to use our weather pages